TimeCST,TemperatureF,Dew PointF,Humidity,Sea Level PressureIn,VisibilityMPH,Wind Direction,Wind SpeedMPH,Gust SpeedMPH,PrecipitationIn,Events,Conditions,WindDirDegrees,DateUTC
12:15 AM,37.8,28.9,71,30.09,10.0,South,19.6,26.5,N/A,,Clear,190,2012-12-31 06:15:00
12:35 AM,37.6,29.3,72,30.09,10.0,South,16.1,26.5,N/A,,Clear,190,2012-12-31 06:35:00
12:55 AM,37.4,29.8,74,30.09,10.0,South,15.0,24.2,N/A,,Clear,190,2012-12-31 06:55:00
1:15 AM,37.0,30.2,76,30.07,10.0,South,12.7,19.6,N/A,,Clear,180,2012-12-31 07:15:00
1:35 AM,36.9,30.6,78,30.07,10.0,South,11.5,-,N/A,,Clear,180,2012-12-31 07:35:00
1:55 AM,36.9,30.9,79,30.09,10.0,South,12.7,18.4,N/A,,Clear,190,2012-12-31 07:55:00
2:15 AM,36.9,31.5,81,30.08,10.0,SSW,11.5,16.1,N/A,,Clear,200,2012-12-31 08:15:00
2:35 AM,36.7,31.8,83,30.08,10.0,SSW,9.2,-,N/A,,Clear,200,2012-12-31 08:35:00
3:15 AM,36.9,32.2,83,30.08,10.0,SSW,10.4,16.1,N/A,,Clear,200,2012-12-31 09:15:00
3:35 AM,36.9,32.5,84,30.08,10.0,South,11.5,-,N/A,,Scattered Clouds,190,2012-12-31 09:35:00
4:15 AM,36.7,33.4,88,30.06,10.0,South,11.5,-,N/A,,Clear,190,2012-12-31 10:15:00
4:35 AM,36.1,34.7,94,30.06,10.0,South,11.5,-,N/A,,Scattered Clouds,190,2012-12-31 10:35:00
4:55 AM,35.6,35.6,100,30.05,7.0,South,8.1,-,N/A,,Drizzle,180,2012-12-31 10:55:00
5:15 AM,35.2,35.2,100,30.04,5.0,South,9.2,-,N/A,,Overcast,180,2012-12-31 11:15:00
5:35 AM,35.1,35.1,100,30.02,4.0,South,5.8,-,0.02,,Overcast,180,2012-12-31 11:35:00
5:55 AM,35.1,35.1,100,30.01,4.0,Calm,Calm,-,0.04,,Overcast,0,2012-12-31 11:55:00
6:15 AM,35.1,35.1,100,30.01,5.0,SSE,5.8,-,N/A,,Mostly Cloudy,160,2012-12-31 12:15:00
7:15 AM,34.7,34.7,100,30.01,4.0,SSE,6.9,-,0.03,,Overcast,150,2012-12-31 13:15:00
7:35 AM,34.9,34.9,100,30.02,5.0,SSE,4.6,-,0.05,,Overcast,160,2012-12-31 13:35:00
7:55 AM,35.1,35.1,100,30.01,5.0,South,4.6,-,0.07,,Overcast,170,2012-12-31 13:55:00
8:15 AM,35.1,35.1,100,30.02,5.0,South,5.8,-,N/A,,Overcast,180,2012-12-31 14:15:00
8:35 AM,35.2,35.2,100,30.02,3.0,South,4.6,-,0.01,,Overcast,170,2012-12-31 14:35:00
8:55 AM,35.6,35.6,100,30.02,4.0,South,3.5,-,0.01,,Overcast,170,2012-12-31 14:55:00
9:15 AM,35.6,35.6,100,30.02,2.5,SSE,3.5,-,0.01,,Overcast,150,2012-12-31 15:15:00
9:35 AM,35.6,35.6,100,30.02,1.2,SE,3.5,-,0.01,,Light Drizzle,140,2012-12-31 15:35:00
10:15 AM,35.8,35.8,100,30.03,2.0,South,5.8,-,N/A,,Light Drizzle,180,2012-12-31 16:15:00
10:35 AM,35.8,35.8,100,30.03,1.5,South,4.6,-,N/A,,Overcast,190,2012-12-31 16:35:00
10:55 AM,36.0,36.0,100,30.02,1.8,South,6.9,-,N/A,,Overcast,180,2012-12-31 16:55:00
11:15 AM,36.3,36.3,100,30.01,2.5,South,5.8,-,N/A,,Overcast,180,2012-12-31 17:15:00
11:35 AM,36.3,36.3,100,30.01,3.0,SSE,5.8,-,N/A,,Overcast,160,2012-12-31 17:35:00
11:55 AM,36.5,36.5,100,30.00,4.0,South,5.8,-,N/A,,Overcast,170,2012-12-31 17:55:00
12:15 PM,36.7,36.7,100,29.98,4.0,South,5.8,-,N/A,,Overcast,170,2012-12-31 18:15:00
12:35 PM,37.4,37.4,100,29.97,4.0,SSW,8.1,-,N/A,,Overcast,200,2012-12-31 18:35:00
12:55 PM,37.6,37.6,100,29.95,5.0,SSW,8.1,-,N/A,,Overcast,200,2012-12-31 18:55:00
1:35 PM,37.8,37.8,100,29.94,7.0,SSW,8.1,-,N/A,,Overcast,200,2012-12-31 19:35:00
1:55 PM,38.1,38.1,100,29.94,4.0,SSW,10.4,-,N/A,,Overcast,210,2012-12-31 19:55:00
2:15 PM,37.9,37.9,100,29.93,2.5,SW,10.4,-,N/A,,Overcast,220,2012-12-31 20:15:00
2:35 PM,37.9,37.9,100,29.93,1.8,SW,9.2,-,N/A,,Overcast,220,2012-12-31 20:35:00
2:55 PM,37.8,37.8,100,29.94,2.5,SW,8.1,-,N/A,,Overcast,220,2012-12-31 20:55:00
3:15 PM,38.3,38.3,100,29.94,3.0,SW,10.4,-,N/A,,Overcast,220,2012-12-31 21:15:00
3:35 PM,38.3,38.3,100,29.95,5.0,SW,11.5,-,N/A,,Overcast,230,2012-12-31 21:35:00
4:15 PM,38.5,38.5,100,29.96,5.0,WSW,10.4,-,N/A,,Overcast,240,2012-12-31 22:15:00
4:35 PM,38.8,38.8,100,29.96,5.0,SW,8.1,-,N/A,,Overcast,230,2012-12-31 22:35:00
4:55 PM,38.8,38.8,100,29.97,5.0,WSW,8.1,-,N/A,,Overcast,240,2012-12-31 22:55:00
5:15 PM,38.7,38.7,100,29.97,4.0,SW,5.8,-,N/A,,Overcast,230,2012-12-31 23:15:00
5:35 PM,38.7,38.7,100,29.97,5.0,SW,4.6,-,N/A,,Overcast,220,2012-12-31 23:35:00
5:55 PM,38.7,38.7,100,29.98,5.0,South,3.5,-,N/A,,Overcast,190,2012-12-31 23:55:00
6:15 PM,38.7,38.7,100,29.99,5.0,SSW,4.6,-,N/A,,Overcast,210,2013-01-01 00:15:00
6:35 PM,38.7,38.7,100,29.99,5.0,SW,4.6,-,N/A,,Overcast,230,2013-01-01 00:35:00
6:55 PM,39.2,39.2,100,30.00,7.0,West,8.1,-,N/A,,Overcast,280,2013-01-01 00:55:00
7:15 PM,39.2,39.2,100,30.01,10.0,West,6.9,-,N/A,,Overcast,270,2013-01-01 01:15:00
7:35 PM,38.8,38.8,100,30.02,10.0,West,8.1,-,N/A,,Overcast,270,2013-01-01 01:35:00
7:55 PM,38.7,38.7,100,30.03,10.0,West,9.2,-,N/A,,Overcast,270,2013-01-01 01:55:00
8:15 PM,38.3,38.3,100,30.04,10.0,West,9.2,-,N/A,,Overcast,280,2013-01-01 02:15:00
8:35 PM,37.8,37.8,100,30.05,10.0,NW,10.4,-,N/A,,Overcast,310,2013-01-01 02:35:00
8:55 PM,36.7,36.7,100,30.06,10.0,NW,10.4,-,N/A,,Overcast,310,2013-01-01 02:55:00
9:15 PM,36.5,36.5,100,30.07,10.0,NW,13.8,-,N/A,,Overcast,310,2013-01-01 03:15:00
9:35 PM,36.0,36.0,100,30.07,10.0,WNW,16.1,19.6,N/A,,Overcast,300,2013-01-01 03:35:00
9:55 PM,35.6,35.6,100,30.08,10.0,NW,13.8,21.9,N/A,,Overcast,310,2013-01-01 03:55:00
10:15 PM,34.7,34.7,100,30.08,10.0,NW,16.1,19.6,N/A,,Overcast,320,2013-01-01 04:15:00
10:35 PM,33.4,33.4,100,30.09,7.0,NW,15.0,18.4,N/A,,Overcast,310,2013-01-01 04:35:00
10:55 PM,32.4,32.4,100,30.09,5.0,NW,15.0,20.7,N/A,,Overcast,320,2013-01-01 04:55:00
11:15 PM,32.0,32.0,100,30.09,7.0,NNW,13.8,18.4,N/A,,Overcast,330,2013-01-01 05:15:00
11:35 PM,32.0,32.0,100,30.10,7.0,NNW,15.0,18.4,N/A,,Overcast,330,2013-01-01 05:35:00
11:55 PM,32.0,32.0,100,30.10,10.0,NNW,15.0,18.4,N/A,,Overcast,340,2013-01-01 05:55:00